Regional Weather Roundup
Issued by NWS

Home | Current Version | Previous Version | Text Only | Print | Product List | Glossary On
Versions: 1 2 3 4 5 6 7 8 9 10 11 12 13 14 15 16 17 18 19 20 21 22 23 24 25 26 27 28 29 30 31 32 33 34 35 36 37 38 39 40 41 42 43 44 45 46 47 48 49 50
000
ASUS43 KTOP 092308
RWRKS

WEATHER ROUNDUP FOR KANSAS
NATIONAL WEATHER SERVICE GOODLAND KS
500 PM CST FRI DEC 09 2016

NOTE:  "FAIR" INDICATES FEW OR NO CLOUDS BELOW 12,000 FEET WITH NO
SIGNIFICANT WEATHER AND/OR OBSTRUCTIONS TO VISIBILITY.

KSZ001>006-013>018-027>032-041>047-100000-
NORTHWEST KANSAS

CITY           SKY/WX    TMP DP  RH WIND       PRES   REMARKS
GOODLAND       CLEAR     33  23  66 S6        30.18S
HAYS           CLEAR     28  14  55 S10       30.35R WCI  19
HILL CITY      CLEAR     31  15  52 S7        30.32R
RUSSELL        CLOUDY    28  12  51 S15       30.36R WCI  16
$$

KSZ061>065-074>080-084>089-100000-
SOUTHWEST KANSAS

CITY           SKY/WX    TMP DP  RH WIND       PRES   REMARKS
DODGE CITY     CLEAR     33  17  51 S13       30.28S WCI  24
ELKHART          N/A     42  23  46 S6          N/A
GARDEN CITY    CLEAR     35  20  54 S8        30.23S
GREAT BEND     CLEAR     27  13  55 S10       30.38R WCI  17
LIBERAL        CLEAR     39  21  48 E10       30.22F WCI  32
PRATT          PTCLDY    24   9  53 SE8       30.37S
$$

KSZ066>073-081>083-090>101-100000-
SOUTHEAST KANSAS

CITY           SKY/WX    TMP DP  RH WIND       PRES   REMARKS
CHANUTE        CLOUDY    29  13  51 SE8       30.50F
COFFEYVILLE    CLOUDY    30  14  51 SE6       30.52F
HUTCHINSON     CLOUDY    28  11  48 S16       30.42S WCI  16
MEDICINE LODGE   N/A     28  11  48 SE9       30.39F
NEWTON         CLOUDY    26  12  55 S12       30.44R WCI  16
PARSONS        CLOUDY    30  14  51 SE3       30.52F
WICHITA INTL   CLOUDY    28  12  51 S13       30.44S WCI  17
WICHITA JABRA  CLOUDY    27  11  51 S13       30.44S WCI  16
WICHITA MCCONL CLOUDY    28  10  48 S12       30.44S WCI  17
WINFIELD       CLOUDY    29  12  49 SE9       30.47S
$$

KSZ007>012-019>026-033>040-048>060-102>105-100000-
NORTHEAST KANSAS

CITY           SKY/WX    TMP DP  RH WIND       PRES   REMARKS
CONCORDIA      CLOUDY    25  14  63 SE8       30.44S
EMPORIA        CLOUDY    28  12  51 SE9       30.47S
LAWRENCE       CLOUDY    26  15  63 E8        30.53F
MANHATTAN      CLOUDY    28  13  53 SE7       30.48S
MARYSVILLE     CLOUDY    27  14  59 SE6       30.48S
OLATHE IND     CLOUDY    26  12  55 SE7       30.52S
OLATHE EXE     CLOUDY    25  11  55 SE5       30.52S
SALINA         CLOUDY    29  14  53 S12       30.44F WCI  19
TOPEKA BILLARD CLOUDY    27  13  55 E6        30.52S
TOPEKA FORBES  CLOUDY    28  14  55 SE7       30.50F
$$



USA.gov is the U.S. government's official web portal to all federal, state and local government web resources and services.